Wind_Speed
42 42 42 42 42 41 42 42 42 42 43 43 43 44 44 45 45 46 46 46 46 45 45 46 45 45 44 45 46 46 45 45 44 44 44 44 43 43 43 42 42 42 42
43 43 43 43 42 42 43 43 43 43 44 44 44 45 45 46 46 46 46 47 47 47 47 47 47 46 46 46 46 46 47 47 47 46 46 46 45 45 45 45 44 44 44
42 42 43 43 42 43 43 43 43 44 44 45 45 45 46 47 47 47 47 48 49 49 48 48 48 48 47 48 48 47 47 47 48 48 48 48 48 47 47 47 46 46 46
41 42 42 43 43 43 43 43 43 44 45 45 46 46 46 47 47 48 48 49 49 49 49 49 49 49 49 48 48 48 48 48 48 48 48 49 50 49 49 49 48 48 48
41 42 42 43 43 43 43 43 43 43 44 45 45 46 46 46 47 47 48 48 48 49 49 50 50 49 49 49 48 48 47 48 48 48 48 48 49 49 50 50 50 50 49
41 41 42 43 44 43 43 43 43 43 44 45 45 45 46 46 46 46 46 47 48 48 48 49 50 49 49 48 48 48 48 48 48 48 48 48 48 48 48 49 49 50 50
40 41 41 42 43 43 43 43 43 43 44 44 44 45 45 45 46 46 46 46 46 47 48 48 49 49 49 49 49 49 49 48 49 49 48 48 48 48 48 48 49 50 50
39 40 40 41 42 42 43 43 43 43 43 43 43 44 44 45 46 46 46 46 46 47 47 47 48 48 49 49 50 50 50 50 50 50 50 50 49 49 49 49 49 49 50
39 39 40 40 41 42 43 43 43 43 42 43 43 44 44 45 46 46 46 47 47 47 47 47 47 48 48 49 50 50 51 51 51 51 51 51 50 51 51 50 50 50 50
38 39 39 40 41 41 43 43 44 44 43 44 44 45 46 46 47 48 47 47 47 47 47 48 49 49 49 50 51 51 51 52 52 52 52 52 52 52 52 52 52 52 52
38 39 39 40 40 41 42 43 44 45 45 45 45 46 46 47 47 48 48 48 48 48 48 49 49 50 51 52 52 52 52 52 53 53 53 53 53 54 54 54 54 55 55
37 38 39 40 40 41 42 43 44 46 46 46 46 46 46 47 47 48 48 49 49 49 49 49 50 50 51 52 52 52 53 53 54 54 54 54 55 55 55 56 56 56 55
37 38 39 40 41 41 42 43 44 44 45 45 47 47 47 47 48 49 50 50 50 50 50 51 51 51 51 52 53 53 53 54 54 54 55 55 56 56 56 56 56 55 56
37 37 38 39 39 40 41 42 43 44 44 45 46 46 46 46 47 48 49 50 51 51 51 51 52 52 52 52 53 54 54 54 54 55 55 55 55 56 56 56 56 56 57
35 36 37 37 38 39 40 41 42 43 43 44 44 45 46 46 46 47 48 50 51 51 52 52 53 53 53 54 54 54 54 55 55 55 55 55 55 55 56 56 57 57 58
35 35 36 36 36 37 38 38 40 41 42 42 42 43 44 44 45 46 47 48 49 50 51 52 52 52 53 54 54 55 55 55 55 56 56 55 55 55 55 56 57 58 59
34 34 34 35 35 36 36 37 38 39 40 40 41 42 43 44 45 45 46 47 48 49 50 51 52 52 53 53 53 54 55 55 55 56 56 56 56 56 56 57 57 57 58
34 35 36 36 36 36 37 38 38 38 38 39 40 41 42 43 44 44 45 45 46 48 49 50 51 52 52 53 53 54 54 55 55 56 56 56 57 57 57 57 56 56 57
33 34 35 35 36 36 37 37 37 37 38 38 38 39 40 40 40 41 42 43 44 45 47 49 50 51 52 53 54 54 54 54 54 54 55 56 55 56 57 56 56 56 56
32 33 34 34 34 35 35 36 36 36 37 38 38 38 38 38 38 39 40 41 42 43 44 46 48 49 50 50 51 52 52 52 53 53 53 54 54 55 56 56 55 55 56
32 32 33 32 32 32 33 34 34 35 36 37 37 37 37 37 38 39 40 41 41 42 43 44 46 48 49 49 50 50 51 51 51 51 52 53 54 54 54 54 54 55 55
31 32 32 31 31 32 32 33 34 34 35 35 36 36 37 37 38 39 40 41 42 42 43 44 45 46 47 48 49 49 50 51 52 52 53 53 53 53 53 53 53 53 53
31 31 32 31 32 32 33 33 34 34 34 35 36 37 37 38 39 39 40 40 41 42 43 44 45 45 45 46 47 47 49 50 51 51 51 51 51 51 51 51 51 51 51
31 31 31 31 31 32 32 32 33 33 34 34 36 37 38 39 39 40 41 41 42 42 42 42 43 43 44 45 46 47 48 49 49 49 49 50 50 50 50 50 50 50 50
31 31 31 30 31 31 32 32 32 32 33 34 35 36 36 37 38 39 40 41 42 42 42 42 42 42 42 43 44 45 46 46 47 47 48 48 48 49 49 49 49 49 49
30 30 30 30 31 31 31 31 31 32 32 33 33 33 34 35 37 38 38 39 39 40 41 41 41 41 41 42 43 43 44 44 45 45 46 47 47 48 48 48 48 48 48
Wind_Direction
257 258 259 259 259 259 259 259 259 260 261 261 260 260 260 259 258 257 256 255 255 256 256 256 256 257 257 258 258 259 260 260 261 261 260 260 260 259 259 259 259 259 258
258 258 259 259 259 259 260 260 260 261 261 261 261 261 261 260 258 257 256 255 254 255 256 255 256 256 257 258 258 259 259 260 261 261 260 260 260 260 259 259 259 259 259
258 258 259 260 260 260 261 261 261 261 261 261 261 261 261 260 259 258 257 255 255 256 256 256 256 256 257 257 258 259 260 260 261 261 261 260 259 259 260 259 259 259 259
259 258 259 259 260 261 261 261 261 261 261 261 261 261 261 260 259 258 257 256 255 255 255 255 256 257 258 258 258 259 259 260 261 261 261 261 261 260 259 259 259 259 259
260 260 260 260 261 261 262 261 260 260 260 261 261 261 261 260 259 259 258 256 255 255 255 255 255 256 257 257 258 258 260 260 261 261 262 262 262 262 261 259 259 259 259
262 262 262 261 261 262 261 260 260 260 260 261 261 261 260 259 259 258 258 257 256 256 256 256 256 256 256 256 257 258 259 260 260 261 262 262 262 263 262 260 259 259 259
263 263 263 262 261 261 261 261 261 260 260 260 260 260 260 259 259 258 257 257 257 257 257 256 257 257 257 257 257 258 258 259 260 261 262 262 263 263 263 262 261 259 259
263 264 263 262 262 261 261 261 261 260 260 260 260 260 259 259 259 259 258 257 258 258 258 257 257 257 257 257 259 260 260 261 261 262 262 262 263 263 264 263 262 260 259
265 264 264 264 263 262 261 261 261 260 260 259 260 261 260 259 259 258 258 258 258 258 258 258 258 258 258 259 259 260 261 262 262 263 263 264 264 264 264 264 263 262 261
266 265 265 264 264 263 262 261 261 260 260 260 261 261 261 260 259 259 258 258 258 258 258 259 259 259 260 260 260 261 261 262 263 263 264 264 265 265 265 265 265 263 263
268 266 264 263 263 263 263 261 261 260 261 261 261 261 261 261 259 257 257 257 258 258 258 259 260 260 260 260 261 261 262 262 263 264 264 264 265 265 265 265 265 265 264
269 267 265 264 264 264 263 263 262 261 261 262 262 262 261 260 258 257 257 258 258 259 259 259 260 260 260 261 261 262 262 263 263 264 265 265 264 265 265 265 266 265 265
270 268 267 266 266 266 266 265 264 263 263 263 262 262 261 260 259 258 258 258 258 259 259 260 260 260 260 261 262 262 263 263 264 265 265 265 265 265 265 265 266 265 264
270 268 267 267 267 267 266 267 266 265 264 263 261 261 261 261 259 259 259 259 259 259 259 260 260 260 261 262 263 263 263 264 264 265 266 266 266 265 265 266 266 265 264
271 270 269 269 268 268 268 268 267 266 265 264 262 262 262 261 261 260 260 260 259 259 259 259 260 261 262 263 263 263 264 265 265 265 266 266 266 266 266 266 265 265 265
272 272 270 269 270 270 270 270 269 268 266 264 264 263 263 263 263 262 261 260 260 260 259 260 261 262 263 263 263 264 265 265 265 265 266 266 266 266 266 267 266 266 266
270 271 270 270 270 270 271 271 271 269 267 266 265 265 265 265 264 263 263 261 260 260 260 261 262 263 265 265 265 265 265 266 266 266 265 266 266 266 267 267 267 267 267
271 271 271 270 270 270 271 272 271 270 269 269 268 268 267 266 265 264 263 262 261 260 260 261 263 264 265 266 266 266 267 267 267 266 266 265 266 266 267 267 268 268 268
273 273 272 273 272 272 272 272 271 271 271 270 271 270 269 268 266 264 264 263 263 263 262 263 264 266 266 267 267 267 267 267 267 266 266 265 265 266 267 267 268 268 268
275 274 274 274 274 274 273 273 273 273 272 271 271 270 269 268 266 266 266 266 266 266 265 266 266 267 268 269 269 268 266 266 266 266 266 265 265 266 267 267 267 267 268
276 276 276 276 275 275 274 274 274 275 274 273 271 270 269 268 267 267 267 268 268 268 268 268 268 268 268 269 269 268 266 265 265 266 267 267 266 266 267 268 268 267 267
277 276 276 275 276 276 276 276 275 276 276 274 271 270 269 268 268 269 269 269 269 269 269 270 270 270 270 270 270 269 268 266 266 267 267 267 267 267 267 267 268 267 267
278 278 277 276 276 277 277 277 277 277 277 276 273 272 271 271 271 271 271 271 271 271 271 271 271 271 270 270 270 270 270 269 269 268 267 267 266 266 266 267 267 267 267
279 279 279 278 277 278 278 279 280 279 278 277 276 274 274 274 274 274 274 274 274 273 273 273 273 272 271 271 271 270 270 269 268 268 267 267 267 267 267 267 267 267 267
280 279 279 279 278 279 279 280 280 279 279 279 278 276 275 275 276 276 276 276 277 277 276 276 275 274 274 273 273 272 271 270 269 268 268 268 267 268 268 267 267 267 267
281 280 280 280 280 280 281 281 280 281 281 281 280 280 279 279 279 278 278 278 279 279 278 278 277 277 277 276 275 274 274 273 271 270 269 268 268 268 268 268 268 268 269
Height
5703 5704 5705 5706 5706 5707 5708 5709 5710 5710 5710 5711 5712 5712 5712 5713 5714 5715 5717 5719 5721 5723 5726 5728 5730 5732 5734 5736 5737 5738 5739 5741 5742 5743 5745 5746 5747 5748 5750 5751 5752 5754 5755
5692 5693 5694 5695 5696 5696 5697 5697 5698 5698 5699 5699 5699 5700 5700 5700 5702 5703 5704 5706 5709 5711 5713 5716 5718 5720 5722 5724 5725 5726 5728 5729 5730 5732 5733 5735 5736 5737 5738 5740 5741 5743 5744
5681 5681 5682 5683 5684 5685 5685 5686 5686 5686 5687 5687 5687 5687 5687 5688 5689 5690 5692 5694 5696 5699 5701 5703 5705 5708 5710 5712 5713 5714 5716 5717 5718 5719 5720 5722 5724 5725 5727 5727 5729 5731 5732
5669 5670 5671 5672 5673 5673 5673 5674 5674 5674 5674 5675 5675 5675 5675 5676 5676 5678 5679 5681 5683 5685 5687 5690 5692 5695 5697 5699 5700 5702 5703 5705 5706 5706 5707 5709 5710 5712 5714 5716 5717 5718 5720
5658 5658 5659 5660 5661 5661 5662 5662 5662 5662 5662 5662 5662 5663 5663 5663 5664 5665 5666 5668 5670 5672 5674 5676 5679 5681 5684 5685 5687 5689 5690 5692 5693 5694 5695 5696 5697 5698 5700 5702 5704 5705 5707
5646 5647 5647 5648 5648 5649 5649 5650 5650 5650 5650 5650 5650 5650 5651 5651 5652 5653 5654 5656 5658 5660 5662 5664 5666 5668 5670 5672 5674 5676 5677 5679 5680 5681 5682 5683 5684 5685 5686 5688 5690 5691 5693
5635 5635 5636 5636 5637 5637 5637 5637 5638 5638 5638 5638 5638 5638 5638 5639 5640 5641 5642 5644 5646 5647 5649 5651 5653 5655 5657 5659 5661 5663 5664 5666 5667 5669 5670 5670 5671 5672 5673 5674 5676 5678 5679
5623 5624 5624 5624 5625 5625 5625 5625 5625 5626 5626 5626 5626 5626 5626 5627 5628 5629 5630 5632 5634 5635 5637 5639 5640 5642 5644 5646 5648 5649 5651 5653 5654 5655 5656 5657 5658 5659 5659 5660 5662 5664 5666
5612 5612 5612 5612 5613 5613 5613 5613 5613 5613 5614 5614 5614 5614 5615 5615 5616 5617 5618 5620 5621 5623 5624 5626 5628 5629 5631 5633 5634 5636 5638 5639 5641 5642 5643 5644 5645 5645 5646 5646 5647 5649 5651
5600 5600 5601 5601 5601 5601 5601 5601 5601 5601 5602 5602 5602 5603 5603 5603 5604 5604 5606 5607 5609 5610 5612 5613 5615 5616 5618 5620 5621 5623 5624 5626 5627 5628 5629 5630 5631 5631 5631 5632 5633 5634 5636
5589 5589 5589 5589 5589 5589 5589 5589 5589 5589 5589 5589 5590 5590 5590 5591 5591 5592 5593 5595 5596 5597 5599 5600 5602 5603 5605 5606 5607 5609 5610 5611 5612 5613 5614 5615 5616 5616 5617 5617 5618 5619 5620
5577 5578 5577 5577 5577 5577 5577 5577 5577 5576 5577 5577 5577 5577 5578 5578 5578 5579 5580 5582 5583 5584 5585 5587 5588 5590 5591 5592 5593 5595 5596 5597 5598 5599 5599 5600 5601 5601 5602 5602 5603 5604 5604
5566 5566 5566 5566 5565 5565 5565 5565 5564 5564 5564 5564 5564 5564 5565 5565 5565 5566 5567 5568 5569 5571 5572 5573 5575 5576 5577 5578 5579 5580 5581 5582 5583 5584 5584 5585 5585 5586 5586 5587 5587 5588 5588
5555 5554 5554 5554 5554 5553 5553 5552 5552 5552 5551 5551 5551 5551 5552 5552 5552 5552 5553 5554 5556 5557 5558 5559 5561 5562 5563 5564 5564 5565 5566 5567 5568 5568 5569 5569 5569 5570 5570 5570 5571 5571 5572
5544 5543 5543 5543 5542 5542 5541 5541 5540 5539 5539 5538 5538 5538 5538 5538 5539 5539 5539 5540 5541 5542 5544 5545 5546 5547 5548 5549 5549 5550 5551 5551 5552 5553 5553 5553 5553 5553 5554 5554 5555 5555 5555
5533 5532 5532 5531 5531 5530 5529 5529 5528 5527 5526 5526 5526 5525 5525 5525 5525 5525 5525 5526 5527 5528 5529 5530 5531 5532 5533 5533 5534 5534 5535 5536 5536 5537 5537 5537 5537 5537 5537 5537 5538 5538 5538
5523 5522 5521 5520 5520 5519 5518 5517 5516 5515 5514 5514 5513 5513 5513 5512 5512 5512 5512 5512 5513 5514 5515 5516 5516 5518 5518 5518 5518 5519 5519 5520 5520 5520 5520 5521 5521 5520 5521 5521 5521 5521 5521
5512 5511 5511 5510 5509 5508 5507 5506 5505 5504 5503 5502 5501 5501 5500 5499 5499 5498 5498 5498 5499 5500 5500 5501 5501 5502 5503 5503 5503 5503 5503 5504 5504 5504 5504 5504 5504 5504 5504 5504 5504 5504 5504
5502 5501 5500 5499 5498 5497 5496 5495 5494 5493 5492 5491 5490 5488 5487 5487 5486 5486 5486 5486 5486 5486 5486 5487 5487 5487 5487 5487 5487 5487 5487 5487 5487 5487 5488 5488 5488 5488 5488 5488 5489 5489 5488
5492 5491 5490 5488 5487 5486 5485 5484 5483 5482 5480 5479 5478 5477 5476 5475 5474 5474 5474 5473 5473 5472 5472 5472 5472 5472 5472 5471 5471 5470 5471 5472 5472 5472 5471 5471 5472 5471 5471 5471 5472 5472 5472
5482 5481 5479 5478 5477 5476 5475 5474 5472 5471 5469 5468 5466 5465 5464 5464 5463 5463 5462 5461 5461 5460 5459 5459 5458 5458 5457 5456 5455 5455 5455 5455 5455 5455 5455 5455 5455 5455 5455 5455 5455 5456 5455
5472 5470 5469 5468 5467 5465 5464 5463 5462 5460 5458 5457 5455 5454 5454 5453 5452 5451 5450 5449 5448 5447 5446 5446 5444 5443 5442 5441 5440 5440 5439 5439 5440 5440 5439 5439 5439 5439 5439 5439 5439 5439 5439
5462 5461 5460 5458 5457 5455 5454 5453 5451 5450 5448 5446 5445 5444 5443 5442 5441 5440 5438 5437 5436 5435 5433 5432 5431 5429 5427 5426 5425 5424 5423 5423 5423 5424 5423 5423 5423 5423 5423 5423 5423 5423 5423
5453 5451 5450 5448 5447 5446 5444 5442 5441 5439 5438 5436 5434 5433 5432 5430 5429 5428 5426 5425 5423 5422 5420 5418 5417 5415 5414 5412 5411 5409 5408 5408 5407 5408 5408 5408 5407 5407 5408 5408 5408 5407 5408
5442 5441 5440 5438 5437 5436 5434 5433 5431 5429 5428 5426 5424 5422 5421 5419 5418 5416 5414 5412 5410 5408 5407 5405 5403 5402 5400 5398 5396 5395 5394 5392 5392 5392 5392 5392 5392 5392 5393 5393 5393 5393 5392
5432 5431 5430 5428 5427 5426 5424 5423 5421 5420 5418 5416 5414 5412 5410 5408 5406 5404 5402 5400 5398 5395 5393 5391 5390 5388 5386 5384 5382 5380 5379 5377 5377 5377 5377 5378 5377 5377 5378 5378 5378 5378 5377